Current Version              Previous Version:    01  02  03  04  05  06  07  08  09  10  11  12  13  14  15  16  17  18  19  20  21  22  23  24  25  26  27  28  29  30  
   31  32  33  34  35  36  37  38  39  40  41  42  43  44  45  46  47  48  49  50  51  52  53  54  55  56  57  58  59  60  

[Printable]
955
ASUS44 KFWD 282315
RWRTX
NORTH TEXAS HOURLY WEATHER ROUNDUP
NATIONAL WEATHER SERVICE FORT WORTH TX
500 PM CST WED JAN 28 2015

NOTE: "FAIR" INDICATES FEW OR NO CLOUDS BELOW 12,000 FEET WITH NO
SIGNIFICANT WEATHER AND/OR OBSTRUCTIONS TO VISIBILITY.

TXZ118-119-290000-
DALLAS/FORT WORTH METROPLEX

CITY           SKY/WX    TMP DP  RH WIND       PRES   REMARKS
DFW AIRPORT    CLOUDY    77  41  27 S17       29.98S
DALLAS LOVE    CLOUDY    78  42  27 S13       29.99S
FTW MEACHAM    PTSUNNY   80  40  23 S16       29.97S
DAL-EXECUTIVE  CLOUDY    79  42  26 S13G23    29.99S
FTW-ALLIANCE   PTSUNNY   79  39  23 S12G18    29.96F
FTW-SPINKS     SUNNY     81  36  19 S17       30.00S
ARLINGTON      PTSUNNY   79  40  24 S16G24    29.99S
GRAND PRAIRIE  SUNNY     79  45  29 S16G23    30.00S
MESQUITE       CLEAR     75  37  25 S13       29.99F
LANCASTER      CLOUDY    76  40  26 S17       30.02S
$$

TXZ091>094-102>105-117-120-121-131>134-290000-
NORTH CENTRAL TEXAS

CITY           SKY/WX    TMP DP  RH WIND       PRES   REMARKS
SHRMAN/DENISON CLOUDY    75  45  33 S14       29.96F
GAINESVILLE    CLOUDY    75  45  33 S12       29.97S
BOWIE          PTSUNNY   79  41  26 S15       29.95R
BRIDGEPORT     PTSUNNY   81  47  30 S15G23    29.96F
DECATUR        PTSUNNY   78  38  23 S12       29.95F
DENTON         CLOUDY    77  40  26 S14       29.95F
MCKINNEY       CLOUDY    76  40  27 S16       29.98S
GREENVILLE     CLOUDY    75  37  25 S12       30.01S
ROCKWALL       CLOUDY    77  41  27 S16G22    29.99F
TERRELL        CLOUDY    78  40  25 S9        30.01S
WAXAHACHIE     PTSUNNY   77  46  34 S16G24    30.02R
CLEBURNE       PTSUNNY   79  36  21 S9G23     30.01F
GRANBURY       MOSUNNY   82  39  21 S10       30.00S
$$

TXZ083>090-098>101-113>116-127>130-139>142-154-155-290000-
WESTERN NORTH TEXAS

CITY           SKY/WX    TMP DP  RH WIND       PRES   REMARKS
WICHITA FALLS  MOSUNNY   78  45  30 SW18G25   29.91S
WF-KICKAPOO    SUNNY     70  35  27 SW8G18    29.93S
VERNON         SUNNY     82  25  12 W16       29.92R
ABILENE        SUNNY     80  43  26 S14       29.99F
ABILENE-DYESS  SUNNY     80  48  32 SW10      29.99R
BRECKENRIDGE   SUNNY     82  42  23 SW12G21   29.97R HAZE
GRAHAM         SUNNY     81  47  30 SW13      29.95R
MINERAL WELLS  MOSUNNY   80  43  26 S15       29.93F
STEPHENVILLE   MOSUNNY   81  35  19 SW10      30.03F
COMANCHE       SUNNY     80  41  25 SW13G20   30.02F
BROWNWOOD      SUNNY     81  37  21 S13G20    30.01F
COLEMAN        SUNNY     80  46  29 SW12      30.01F
BRADY          SUNNY     81  36  19 SW13      30.03F
$$

TXZ143>147-156>162-174-175-290000-
CENTRAL TEXAS

CITY           SKY/WX    TMP DP  RH WIND       PRES   REMARKS
WACO           MOSUNNY   75  43  31 S16       30.03R
WACO-TSTC      SUNNY     79  39  24 S17G23    30.05R
WACO-MCGREGOR  SUNNY     77  45  31 S18       30.04S
HILLSBORO      PTSUNNY   77  44  30 S17       30.02S
CORSICANA      MOCLDY    78  41  26 S10       30.04F
MEXIA          PTSUNNY   76  43  30 S17       30.04F
HEARNE         SUNNY     78  41  27 S13       30.08S
CAMERON        SUNNY     78  41  26 S10G17    30.06S
TEMPLE         SUNNY     77  39  25 S22       30.03S
KILLEEN        SUNNY     78  34  20 S16G25    30.04S
FORT HOOD      SUNNY     80  35  19 S16       30.03S
GATESVILLE     SUNNY     81  37  21 S13       30.05S
HAMILTON       SUNNY     80  38  22 SW14      30.04S
LAMPASAS       SUNNY     78  36  21 S10G17    30.04R
$$

TXZ095>097-106>112-122>126-135>138-148>153-164>167-290000-
EAST TEXAS

CITY           SKY/WX    TMP DP  RH WIND       PRES   REMARKS
PARIS          CLOUDY    73  43  33 S12       30.01S
SULPHUR SPRNGS CLOUDY    75  41  29 S12       30.03S
MOUNT PLEASANT MOCLDY    74  42  31 S10G17    30.04S
GILMER         CLOUDY    74  45  35 S8G16     30.05R
MINEOLA        CLOUDY    75  39  27 S8        30.04R
TYLER          CLOUDY    76  43  30 S13       30.04S
LONGVIEW       MOCLDY    73  45  36 S9        30.05R
MARSHALL       PTCLDY    73  42  31 S12       30.09R
ATHENS         MOCLDY    75  39  27 S8G17     30.03S
PALESTINE      PTCLDY    77  41  27 S12       30.07R
JACKSONVILLE   MOCLDY    74  42  31 CALM      30.10R
HENDERSON      MOCLDY    74  42  31 S8        30.08S
NACOGDOCHES      N/A    N/A N/A N/A MISG        N/A
LUFKIN         CLEAR     76  46  34 S13       30.09S
$$

SUPPLEMENTAL OBSERVATIONS (CENTRAL)

CITY           SKY/WX    TMP DP  RH WIND       PRES   REMARKS
LAKE TEXOMA      N/A     75  39  27 S13         N/A
PAT MAYSE LAKE   N/A     73  36  25 S15         N/A
GREENVILLE       N/A     75  39  27 S13G22      N/A
CEDAR HILL       N/A     77  41  27 S10G22      N/A
ATHENS           N/A     75  37  25 S9G17       N/A
PALESTINE        N/A     75  39  27 S8G16       N/A
LAKE LIMESTONE   N/A     79  37  22 S14         N/A
MCGREGOR         N/A     77  41  27 S20G26      N/A
TEMPLE           N/A     75  39  27 S17G23      N/A
$$

SUPPLEMENTAL OBSERVATIONS (WEST)

CITY           SKY/WX    TMP DP  RH WIND       PRES   REMARKS
MILLERS CREEK    N/A     79  46  31 SW14        N/A
POSSUM KINGDOM   N/A     81  41  24 SW12        N/A
GRANBURY         N/A     81  36  19 S12G23      N/A
HAMBY            N/A     79  46  31 SW12        N/A
IVIE RESERVOIR   N/A     82  37  20 SW12        N/A
COLORADO BEND    N/A     79  34  19 S8G17       N/A
$$

SUPPLEMENTAL OBSERVATIONS (EAST)

CITY           SKY/WX    TMP DP  RH WIND       PRES   REMARKS
TEXARKANA        N/A     73  43  33 S3G14       N/A
LINDEN           N/A     73  45  35 S3          N/A
CADDO LAKE       N/A     72  43  35 S3G12       N/A
LUFKIN           N/A     73  43  33 MISG        N/A
N SABINE NF      N/A     70  45  40 MISG        N/A
$$

SUPPLEMENTAL OBSERVATIONS ARE A COLLECTION OF AUTOMATED INSTRUMENTS
THAT ARE MAINTAINED BY A VARIETY OF FEDERAL AND STATE AGENCIES.
CERTAIN ELEMENTS...SUCH AS HUMIDITY VALUES AND SUSTAINED WIND
SPEEDS...MAY BE APPROXIMATED.